Location: ?
(35.6144°N, 139.6873°E)
Time: 03:18:44
(UTC+00:00)

Daily predictions for brighter satellites

Satellite Brightness Start Highest point End
(mag) Time Altitude Azimuth Time Altitude Azimuth Time Altitude Azimuth
CSL-04 Rocket 4.4 10:03:11 10° SE 10:07:58 36° ENE 10:12:45 10° N
Cosmos 1680 Rocket 3.9 10:03:05 10° S 10:08:02 43° ESE 10:13:00 10° NNE
Cosmos-2242 3.0 10:06:47 10° S 10:10:56 65° E 10:15:07 10° NNE
Aureole 2 4.0 10:10:46 10° N 10:13:36 60° ENE 10:16:30 10° SSE
Okean O Rocket 2.6 10:09:51 10° SE 10:13:45 32° ENE 10:17:41 10° N
ATLAS 2AS CENTAUR R/B 4.4 10:09:31 10° WSW 10:16:28 42° NW 10:23:13 10° NNE
Gbstr 26 Del rocket 3.8 10:10:02 10° NW 10:16:29 79° NE 10:21:38 10° SE
Cosmos 2369 Rocket 4.2 10:14:50 10° NNE 10:17:13 13° NE 10:19:34 10° ENE
OAO 2 Rocket 3.5 10:14:04 10° W 10:19:22 76° S 10:24:36 10° ESE
Intercosmos 24 4.2 10:20:58 10° SSW 10:24:34 73° W 10:29:05 10° N
DELTA 2 DEB (DPAF) 4.0 10:22:15 10° NNE 10:26:28 66° ESE 10:30:39 10° S
Cosmos 2237 Rocket 4.2 10:21:23 10° SW 10:26:30 34° WNW 10:31:41 10° N
Resurs 1-3 4.4 10:22:54 10° S 10:27:07 52° W 10:31:22 10° NNW
USA 186 1.7 10:27:46 10° SSE 10:30:52 90° ENE 10:34:05 10° N
NOSS 3-1 (C) 4.3 10:27:07 10° NNW 10:35:00 86° WSW 10:44:17 10° SSE
SL-8 R/B 3.8 10:30:55 10° SW 10:35:40 80° NW 10:40:25 10° NE
USA 308 2.5 10:34:16 10° WNW 10:36:52 49° SW 10:39:38 13° SSE
NOSS 3-1 (A) 4.5 10:29:24 10° NNW 10:37:00 57° NE 10:45:04 13° SE
Lacrosse 5 rocket 4.4 10:34:31 10° WNW 10:37:24 17° NW 10:40:17 10° N
Tsikada Rocket 4.5 10:35:23 10° SSE 10:41:02 39° E 10:46:44 10° NNE
Cosmos 1943 4.2 10:37:29 10° SSE 10:41:59 25° ESE 10:46:29 10° NE
Cosmos 2221 3.1 10:39:29 10° SSE 10:43:26 36° E 10:47:24 10° NNE
CZ-4C R/B 3.8 10:40:32 10° NNE 10:44:08 37° E 10:47:51 10° SSE
Cosmos 1378 2.7 10:46:27 10° S 10:49:42 85° E 10:52:59 10° N
Cosmos 1943 Rocket 2.7 10:48:00 10° NNW 10:53:34 60° WSW 10:59:03 10° S
Okean-O 3.0 10:51:05 17° SE 10:54:10 45° ENE 10:58:22 10° N
CARTOSAT-1 3.7 10:51:33 10° S 10:55:47 74° WSW 11:00:02 10° NNW
ERS-1 Rocket 4.4 10:55:04 15° ESE 10:57:29 22° ENE 11:01:14 10° NNE
Cosmos 1933 4.4 10:54:55 10° SSW 10:58:42 46° W 11:02:31 10° N
Cosmos 494 Rocket 4.2 10:54:11 10° S 10:58:59 44° ESE 11:03:49 10° NNE
Cosmos 921 Rocket 3.0 10:57:44 10° S 11:02:09 67° ESE 11:06:36 10° NNE
Aureole 3 Rocket 4.0 10:58:03 10° N 11:02:17 42° E 11:05:54 20° SE
Cosmos 1048 Rocket 4.5 11:04:11 16° SSE 11:07:45 37° ESE 11:12:27 10° NE
Cosmos 1743 3.5 11:07:02 10° NNE 11:10:14 29° E 11:10:53 27° E
CZ-4B R/B 4.3 11:06:36 10° SSW 11:11:37 40° W 11:16:36 10° NNW
Cosmos 2278 Rocket 4.4 11:10:58 10° NW 11:15:05 21° W 11:19:12 10° SSW
CZ-4 R/B 4.0 11:15:14 10° SW 11:17:11 14° W 11:19:10 10° WNW
Lacrosse 5 1.8 11:13:57 10° NW 11:19:05 85° SW 11:21:42 29° SE
Cosmos 1726 4.1 11:18:39 10° NE 11:19:12 11° ENE 11:19:12 11° ENE
Cosmos 1371 Rocket 4.0 11:16:02 10° NNW 11:21:24 74° ENE 11:24:17 28° SSE
MetOp-B 4.2 11:20:54 26° SSE 11:23:51 65° ENE 11:29:09 10° N
Terra 2.7 11:25:05 28° ESE 11:26:24 33° ENE 11:30:35 10° N
Cosmos 2297 3.8 11:21:17 10° NNW 11:26:59 65° ENE 11:29:41 31° SE
Cosmos 1420 Rocket 4.1 11:24:03 10° NNW 11:29:22 77° WSW 11:32:23 26° S
USA 290 3.5 11:27:05 10° NW 11:30:04 36° WSW 11:31:15 26° SSW
Resurs 01 Rocket 3.7 11:31:38 10° SSW 11:35:11 24° W 11:38:47 10° NW
SPOT 3 Rocket 4.4 11:35:34 29° E 11:36:53 34° ENE 11:41:28 10° N
MOS 1 4.4 11:35:12 23° S 11:38:48 73° WSW 11:44:29 10° NNW
SPOT 5 2.6 11:36:55 35° SSE 11:38:51 89° W 11:43:20 10° NNW
ATLAS 3B R/B 3.1 11:32:59 10° NW 11:40:48 70° WSW 11:45:18 27° SSE
Meteor 1-14 Rocket 4.4 11:35:43 10° N 11:41:34 65° E 11:43:58 36° SSE
Spot 2 Rocket 4.0 11:40:45 36° ESE 11:41:59 43° ENE 11:46:44 10° N
GEOS 3 Rocket 3.4 11:40:37 10° NE 11:45:45 69° ESE 11:50:34 11° SSW
Okean 3 Rocket 3.7 11:41:50 10° N 11:46:06 51° E 11:46:31 49° ESE
USA 281 4.2 11:43:42 23° E 11:46:24 32° ENE 11:52:03 10° N
SL-16 R/B 4.4 11:41:49 10° WSW 11:46:27 26° WNW 11:51:07 10° N
Cosmos 1842 Rocket 3.4 11:45:25 43° S 11:46:49 82° E 11:51:15 10° N
Landsat 4 4.0 11:47:40 45° NE 11:47:40 45° NE 11:50:42 10° N
Cosmos 1603 3.7 11:46:25 33° S 11:48:52 61° ESE 11:54:29 10° NNE
Okean O Rocket 3.9 11:46:50 10° SW 11:50:02 20° W 11:53:15 10° NW
Meteor 2-6 Rocket 4.4 11:47:25 15° SSW 11:52:09 68° W 11:57:39 10° N
IRS-1A Rocket 4.2 11:50:43 36° S 11:53:11 83° WSW 11:58:46 10° NNW
